Location: Alt?nova Orta
(36.9295°N, 30.7847°E)
Time: 17:36:31
(UTC+00:00)

H-2A R/B - Pass Details

Date: 17 February 2020
Orbit: 530 x 652 km, 98.3° (Epoch: 31 March)

Event Time Altitude Azimuth Distance (km) Brightness Sun altitude
Rises 03:42:26 0° 353° (N) 2,907 5.9 -12.9°
Reaches altitude 10° 03:45:16 10° 333° (NNW) 2,017 4.9 -12.4°
Maximum altitude 03:48:02 17° 293° (WNW) 1,633 4.1 -11.8°
Enters shadow 03:48:34 16° 285° (WNW) 1,651 4.1 -11.7°
